Probability
0 0 0 0 0 0 0 0 1 2 3 2 1 0 0 0 0 0 0 0 0 0 0 0 0 0 0 0 0 0 0 0 0 0 0 0 0 0 0 0 0 0 0
0 0 0 0 0 0 0 0 1 2 3 2 1 0 0 0 0 0 0 0 0 0 0 0 0 0 0 0 0 0 0 0 0 0 0 0 0 0 0 0 0 0 0
0 0 0 0 0 0 0 0 0 1 2 2 1 0 0 0 0 0 0 0 0 0 0 0 0 0 0 0 0 0 0 0 0 0 0 0 0 0 0 0 0 0 0
0 0 0 0 0 0 0 0 0 0 1 2 1 0 0 0 0 0 0 0 0 0 0 0 0 0 0 0 0 0 0 0 0 0 0 0 0 0 0 0 0 0 0
0 0 0 0 0 0 0 0 0 0 0 1 2 1 0 0 0 0 0 0 0 0 0 0 0 0 0 0 0 0 0 0 0 0 0 0 0 0 0 0 0 0 0
0 0 0 0 0 0 0 0 0 0 0 1 2 1 0 0 0 0 0 0 0 0 0 0 0 0 0 0 0 0 0 0 0 0 0 0 0 0 0 0 0 0 0
0 0 0 0 0 0 0 0 0 0 0 0 1 1 0 0 0 0 0 0 0 0 0 0 0 0 0 0 0 0 0 0 0 0 0 0 0 0 0 0 0 0 0
0 0 0 0 0 0 0 0 0 0 0 0 0 0 0 0 0 0 0 0 0 0 0 0 0 0 0 0 0 0 0 0 0 0 0 0 0 0 0 0 0 0 0
0 0 0 0 0 0 0 0 0 0 0 0 0 0 0 0 0 0 0 0 0 0 0 0 0 0 0 0 0 0 0 0 0 0 0 0 0 0 0 0 0 0 0
0 0 0 0 0 0 0 0 0 0 0 0 0 0 0 0 0 0 0 0 0 0 0 1 1 1 1 0 0 0 0 0 0 0 0 0 0 0 0 0 0 0 0
0 0 0 0 0 0 0 0 0 0 0 0 0 0 0 0 0 0 0 0 0 0 0 1 2 2 2 1 1 0 0 0 0 0 0 0 0 0 0 0 0 0 0
0 0 0 0 0 0 0 0 0 0 0 0 0 0 0 0 0 0 0 0 0 0 0 1 2 3 3 3 2 1 1 0 0 0 0 0 0 0 0 0 0 0 0
0 0 0 0 0 0 0 0 0 0 0 0 0 0 0 0 0 0 0 0 0 0 0 0 1 1 2 2 2 2 2 1 1 1 0 0 0 0 0 0 0 0 0
0 0 0 0 0 0 0 0 0 0 0 0 0 0 0 0 0 0 0 0 0 0 0 0 0 0 1 1 1 1 2 2 2 1 0 0 0 0 0 0 0 0 0
0 0 0 0 0 0 0 0 0 0 0 0 0 0 0 0 0 0 0 0 0 0 0 0 0 0 0 0 0 0 1 1 1 1 0 0 0 0 0 0 0 0 0
0 0 0 0 0 0 0 0 0 0 0 0 0 0 0 0 0 0 0 0 0 0 0 0 0 0 0 0 0 0 0 0 0 0 0 0 0 0 0 0 0 0 0
0 0 0 0 0 0 0 0 0 0 0 0 0 0 0 0 0 0 0 0 0 0 0 0 0 0 0 0 0 0 0 0 0 0 0 0 0 0 0 0 0 0 0
0 0 0 0 0 0 0 0 0 0 0 0 0 0 0 0 0 0 0 0 0 0 0 0 0 0 0 0 0 0 0 0 0 0 0 0 0 0 0 0 0 0 0
0 0 0 0 0 0 0 0 0 0 0 0 0 0 0 0 0 0 0 0 0 0 0 0 0 0 0 0 0 0 0 0 0 0 0 0 0 0 0 0 0 0 0
0 0 0 0 0 0 0 0 0 0 0 0 0 0 0 0 0 0 0 0 0 0 0 0 0 0 0 0 0 0 0 0 0 0 0 0 0 0 0 0 0 0 0
0 0 0 0 0 0 0 0 0 0 0 0 0 0 0 0 0 0 0 0 0 0 0 0 0 0 0 0 0 0 0 0 0 0 0 0 0 0 0 0 0 0 0
0 0 0 0 0 0 0 0 0 0 0 0 0 0 0 0 0 0 0 0 0 0 0 0 0 0 0 0 0 0 0 0 0 0 0 0 0 0 0 0 0 0 0
0 0 0 0 0 0 0 0 0 0 0 0 0 0 0 0 0 0 0 0 0 0 0 0 0 0 0 0 0 0 0 0 0 0 0 0 0 0 0 0 0 0 0
0 0 0 0 0 0 0 0 0 0 0 0 0 0 0 0 0 0 0 0 0 0 0 0 0 0 0 0 0 0 0 0 0 0 0 0 0 0 0 0 0 0 0
0 0 0 0 0 0 0 0 0 0 0 0 0 0 0 0 0 0 0 0 0 0 0 0 0 0 0 0 0 0 0 0 0 0 0 0 0 0 0 0 0 0 0
0 0 0 0 0 0 0 0 0 0 0 0 0 0 0 0 0 0 0 0 0 0 0 0 0 0 0 0 0 0 0 0 0 0 0 0 0 0 0 0 0 0 0
Wind_Speed
8 8 9 9 9 9 9 11 11 12 10 9 9 9 9 7 6 7 8 9 9 10 9 6 7 7 6 7 7 6 6 5 3 2 3 4 7 8 7 7 6 7 7
7 7 8 8 9 10 10 10 11 12 12 10 10 7 7 6 7 6 8 10 10 10 10 10 8 8 7 8 8 7 5 5 5 4 2 3 4 7 9 7 7 8 6
8 7 7 8 9 10 11 10 11 12 13 11 7 6 6 5 7 9 10 12 12 11 10 11 10 9 9 9 10 9 9 7 6 6 5 4 5 3 4 7 7 7 6
9 7 7 8 9 10 9 10 10 11 11 12 10 11 11 12 12 9 8 10 12 13 13 12 12 11 9 10 10 11 9 8 7 5 7 6 4 2 3 3 4 6 7
9 8 7 7 7 7 8 8 9 9 10 11 13 13 12 11 7 7 9 10 11 13 14 13 13 12 11 11 10 10 11 10 9 7 5 7 7 6 4 5 4 4 5
7 6 5 4 4 4 5 6 7 8 8 10 12 13 14 12 10 10 10 9 9 10 14 14 13 13 12 12 12 11 12 11 11 9 7 6 5 6 7 9 7 5 5
4 3 3 3 3 3 4 5 6 7 7 9 10 12 14 13 13 12 11 9 8 9 12 13 13 13 13 12 11 11 12 12 12 12 10 9 9 5 5 8 7 6 4
2 2 2 2 2 2 3 3 5 6 6 7 9 9 11 10 9 11 10 9 9 9 9 12 13 14 13 12 12 11 12 10 12 13 12 9 9 7 7 6 6 7 5
2 2 1 1 1 1 2 2 3 4 5 6 7 7 8 9 9 9 9 8 7 7 9 11 13 13 13 13 12 11 12 11 12 11 12 11 8 7 7 7 7 8 9
2 1 1 0 0 1 1 1 2 3 4 4 5 5 7 8 8 8 8 8 8 7 8 9 11 12 12 12 12 11 10 11 11 9 11 11 9 8 7 7 7 8 10
2 1 0 0 1 1 1 2 2 3 3 4 4 5 5 6 7 7 8 8 7 8 8 9 9 10 11 11 12 12 11 13 12 11 11 12 10 9 8 8 8 8 9
2 1 1 1 2 2 2 2 2 2 3 3 3 4 4 5 5 6 7 7 7 7 7 7 8 9 10 10 12 13 12 13 13 13 12 13 10 12 9 8 9 9 9
2 2 2 3 3 3 3 3 3 3 4 3 3 4 4 4 5 6 5 6 6 6 6 7 8 9 9 10 11 12 12 12 13 12 13 12 11 12 10 10 9 8 7
2 2 3 3 4 4 4 4 4 4 4 4 3 4 4 4 4 4 4 5 5 6 6 6 7 7 8 9 9 10 11 11 11 11 11 11 11 11 10 9 10 8 8
1 1 2 3 3 4 5 5 5 5 4 4 4 4 4 4 4 4 4 4 4 5 5 5 6 6 7 7 8 8 9 10 10 9 9 10 10 11 9 7 7 7 7
1 3 3 4 5 5 6 6 6 6 5 4 5 5 5 4 4 4 4 4 4 4 4 5 5 6 5 7 9 8 7 7 8 9 8 7 8 9 10 10 9 8 7
2 3 4 4 5 5 6 6 6 6 5 5 5 5 5 5 5 5 4 4 4 4 4 4 4 5 6 6 7 8 7 7 7 8 7 5 5 7 6 7 8 7 8
2 3 4 5 5 5 5 6 6 6 5 5 5 5 6 6 5 5 4 4 4 4 4 4 4 5 5 5 6 7 7 6 6 6 6 6 5 5 6 5 4 4 4
1 2 3 4 4 5 6 6 6 6 6 6 6 6 6 6 5 5 5 5 4 4 4 3 4 4 4 3 4 5 4 4 5 4 4 5 5 6 8 6 5 4 2
4 4 4 4 4 6 6 5 6 6 6 7 7 7 6 6 6 6 5 4 3 4 3 3 3 3 4 3 4 4 3 4 4 2 2 4 5 5 7 6 5 5 4
4 5 5 5 5 7 6 6 6 6 7 8 7 7 6 6 6 5 4 4 3 3 3 3 3 3 3 4 4 4 3 4 3 3 3 2 4 5 6 6 5 5 4
5 6 5 5 6 7 7 7 7 8 8 8 8 7 6 5 5 5 4 3 3 3 3 3 4 3 2 2 3 4 4 4 4 4 3 2 4 4 4 3 3 5 5
5 5 5 6 6 6 6 7 8 8 8 8 8 7 6 5 4 4 4 4 3 2 3 2 3 3 2 2 3 3 3 3 3 2 2 3 4 4 3 3 4 3 3
5 5 5 5 6 6 7 7 8 8 7 8 8 7 6 5 4 3 3 3 3 3 3 3 3 3 3 2 1 1 1 1 2 1 2 3 3 3 3 2 2 2 2
5 4 5 5 7 7 7 7 8 8 7 7 7 6 5 5 4 3 2 3 2 2 3 3 3 3 4 3 3 2 2 2 2 2 1 1 1 1 1 1 2 2 2
4 5 5 6 7 7 7 7 8 7 7 6 6 5 5 4 4 4 3 4 3 4 4 4 4 3 4 4 4 4 4 4 4 3 2 2 2 3 3 3 2 2 2
Wind_Direction
225 207 196 191 187 188 191 192 193 193 191 195 201 207 214 212 211 212 209 207 204 200 201 202 200 199 197 197 197 196 207 215 204 222 263 257 239 233 229 224 224 225 223
227 213 198 190 190 194 197 200 199 195 195 199 201 204 205 212 216 215 218 216 212 205 203 205 204 202 202 201 201 199 201 208 190 182 206 273 275 240 229 220 220 224 219
231 221 204 196 194 199 201 205 206 203 199 196 191 194 201 211 214 216 217 216 215 214 209 208 207 206 205 209 207 203 202 209 205 191 183 205 239 273 244 222 219 218 219
231 223 210 202 199 204 203 205 208 207 202 193 196 198 204 213 216 214 214 210 211 216 215 213 212 213 212 212 210 209 208 204 210 209 215 219 210 237 291 270 232 222 223
220 220 214 209 206 201 200 205 207 209 205 200 200 204 215 220 218 212 213 212 211 213 214 214 215 217 218 218 214 211 212 212 213 209 202 223 238 234 239 264 258 243 236
211 215 217 209 207 198 194 200 205 213 211 208 207 208 216 218 217 217 217 215 212 211 212 213 215 218 220 221 219 217 216 217 218 217 211 200 205 211 220 240 247 245 237
198 210 217 213 207 201 200 203 209 221 219 216 216 215 218 219 222 222 223 219 215 213 211 209 215 218 221 221 219 219 221 220 220 222 224 223 225 213 210 231 246 249 245
179 196 211 214 212 210 208 209 217 226 228 225 226 224 220 220 226 226 226 223 221 219 209 207 212 216 217 220 220 223 224 223 225 227 227 230 230 225 225 229 241 261 257
181 190 191 209 218 210 218 219 234 238 237 237 235 231 225 223 227 229 228 229 227 220 211 207 210 213 214 216 218 225 224 224 227 229 229 233 234 230 230 230 227 245 264
143 123 106 86 334 273 262 256 249 252 253 249 244 241 236 229 229 230 234 234 233 226 217 213 212 212 213 214 216 222 224 226 228 227 230 233 234 232 230 231 230 230 248
136 125 106 323 289 300 291 275 275 278 277 268 261 254 249 242 236 233 235 237 236 230 225 220 216 213 212 211 215 220 219 224 229 226 228 233 229 232 230 229 230 233 236
129 129 123 44 22 0 342 325 310 298 288 282 277 271 267 258 249 244 242 239 240 236 231 226 224 221 217 213 215 220 221 224 227 228 228 232 229 231 230 229 231 233 231
70 45 38 30 14 357 345 334 328 316 306 298 289 284 276 266 258 256 253 245 242 240 235 227 227 226 223 219 219 222 223 226 228 228 229 231 227 231 230 229 232 233 231
70 35 17 7 1 351 341 333 330 327 318 311 306 299 295 287 279 273 266 257 248 244 242 237 234 231 228 225 224 225 227 228 229 228 229 230 228 231 230 231 233 231 231
43 19 2 353 348 346 344 343 337 334 329 324 318 309 309 305 300 293 283 275 264 256 251 248 245 239 234 232 229 229 230 232 233 231 230 230 230 230 230 229 228 225 230
16 9 4 359 353 350 345 341 336 337 338 333 322 320 318 315 313 309 303 294 281 271 259 252 249 247 245 241 231 230 234 235 236 238 235 231 226 228 226 226 224 219 224
26 9 3 356 349 348 343 339 336 339 340 333 328 327 324 320 316 313 310 298 290 284 272 262 254 254 256 245 235 230 235 239 239 239 237 230 222 215 216 220 224 230 230
24 5 355 348 347 348 345 340 339 338 333 330 329 329 325 317 315 314 304 298 296 289 278 271 261 260 266 252 242 233 235 245 247 242 233 228 222 209 201 204 210 220 227
15 8 356 340 338 343 343 339 335 335 334 331 329 324 317 310 309 306 299 297 295 289 285 282 273 266 275 262 249 235 240 243 248 249 241 230 225 209 194 194 203 206 213
26 8 356 350 350 350 350 341 330 332 330 325 320 318 313 306 301 296 294 292 288 285 291 290 284 270 275 275 254 233 235 243 248 249 245 233 223 211 195 198 199 210 209
20 7 359 354 350 352 349 333 325 323 319 315 313 312 312 306 298 297 294 292 289 290 287 289 295 287 277 279 261 237 230 233 243 245 244 231 207 207 199 198 207 211 178
17 10 358 348 348 351 344 326 319 320 320 317 313 310 311 308 304 303 304 301 293 290 286 287 296 297 290 271 261 244 239 236 238 244 240 210 181 184 186 195 185 166 157
8 2 350 337 341 347 342 322 319 324 322 317 311 310 314 313 310 308 307 306 298 286 287 285 291 303 309 295 272 253 246 244 244 245 213 181 167 163 163 155 155 158 159
0 353 345 336 335 341 340 327 324 325 317 311 311 315 318 317 315 306 299 294 290 285 285 286 289 300 301 293 286 262 250 236 227 228 182 159 158 152 131 127 138 149 151
352 349 341 331 328 333 331 329 327 324 317 313 313 316 314 312 315 311 312 303 297 272 273 278 272 277 286 289 274 263 247 224 212 187 181 190 171 164 161 138 130 128 126
346 343 338 332 328 327 325 327 326 322 317 314 316 315 312 311 309 312 329 356 333 347 330 298 281 278 275 291 283 268 252 233 206 196 209 208 204 200 191 178 163 150 148